Location: Bayshore Village Mobile Home Park
(26.6945°N, 81.8642°W)
Time: 01:23:28
(UTC+00:00)

Cosmos 1605 Rocket - Pass Details

Date: 17 June 2021
Orbit: 944 x 1006 km, 82.9° (Epoch: 05 August)

Event Time Altitude Azimuth Distance (km) Brightness Sun altitude
Rises 01:49:44 0° 1° (N) 3,733 7.6 -17.2°
Reaches altitude 10° 01:52:22 10° 6° (N) 2,777 6.8 -17.7°
Maximum altitude 01:58:35 54° 83° (E) 1,199 4.2 -18.8°
Enters shadow 02:01:26 31° 144° (SE) 1,656 4.7 -19.2°
